Wind_Speed
12 11 11 11 11 11 12 12 12 12 13 13 12 12 13 13 13 14 14 14 15 15 15 15 15 16 15 15 15 15 15 14 13 13 12 12 11 10 10 10 10 10 10 10
11 11 11 11 11 11 11 12 13 13 12 13 12 12 12 13 13 13 15 15 15 15 15 15 15 16 16 16 16 16 16 15 14 14 13 13 13 12 12 12 12 12 12 12
11 11 10 10 10 10 11 12 13 12 12 12 12 12 12 12 12 13 14 15 16 16 15 15 15 16 16 16 16 16 16 16 15 15 15 15 15 14 14 14 14 14 14 14
12 11 11 10 10 10 11 11 12 11 12 12 12 11 11 12 12 12 13 14 15 15 15 16 16 17 17 17 17 16 16 16 16 16 16 16 16 16 16 16 16 16 16 16
14 13 12 11 11 11 11 11 11 11 12 12 12 12 12 12 12 12 13 13 14 15 15 16 17 17 17 17 17 17 18 18 17 17 17 17 18 18 18 18 18 18 18 18
15 14 13 11 12 12 11 11 11 12 11 12 12 12 12 12 12 11 12 12 12 13 14 16 16 17 17 17 18 18 18 18 19 19 19 19 19 20 20 20 20 20 19 19
16 15 14 13 12 12 12 12 13 13 12 12 12 13 13 13 13 12 13 12 12 13 13 15 15 16 15 16 18 18 19 19 20 20 20 20 20 20 20 20 20 20 21 21
18 17 15 14 14 13 13 13 13 13 13 13 13 13 13 13 13 13 13 13 13 14 15 15 16 16 17 18 19 19 19 20 20 21 21 21 21 21 21 21 21 22 22 22
20 18 16 16 15 15 14 14 13 13 13 13 13 14 15 14 14 14 15 15 15 16 17 17 17 18 18 19 19 19 20 20 21 21 21 21 21 22 22 22 22 22 23 23
21 20 19 17 17 17 16 15 15 15 15 15 15 15 16 16 15 15 16 16 17 17 17 17 17 18 19 19 19 20 20 21 22 22 22 22 22 22 23 23 24 24 25 25
23 21 21 19 18 18 18 17 16 17 16 16 16 16 16 17 17 16 16 16 17 17 17 17 17 18 19 20 20 21 21 21 22 22 22 23 23 24 24 25 25 26 27 28
23 22 22 21 21 20 19 19 18 18 18 17 17 17 17 18 18 17 17 17 18 18 18 19 19 19 20 21 21 21 21 22 23 23 24 24 25 25 26 26 27 28 28 29
25 24 24 23 22 22 21 20 20 20 19 19 19 19 19 19 20 20 19 20 20 20 20 21 21 21 21 21 21 22 22 23 23 24 25 26 26 27 27 28 28 29 30 31
27 26 25 24 24 24 23 21 21 20 20 20 20 20 21 21 21 21 21 21 21 22 22 22 22 22 22 22 23 24 24 24 24 25 26 27 27 28 29 29 30 31 32 32
27 27 26 26 25 25 24 22 22 21 20 21 21 22 22 22 23 23 22 23 23 23 23 24 24 25 24 25 25 25 26 26 27 28 28 29 30 31 31 31 32 32 33 34
29 28 28 27 26 26 25 24 23 23 23 23 23 23 23 23 23 23 23 23 24 24 24 24 24 25 26 26 26 27 27 28 29 29 30 31 32 32 33 33 34 35 35 35
31 29 28 28 28 27 27 26 26 25 25 25 25 25 25 25 25 25 25 25 26 26 25 25 25 25 26 26 26 27 27 28 29 30 30 31 32 33 34 35 36 37 37 38
31 30 29 29 29 28 28 28 28 28 28 28 27 27 27 27 27 28 28 28 27 27 27 27 27 27 27 27 28 28 29 29 30 31 32 32 33 34 34 35 36 37 38 40
32 31 29 29 29 29 29 29 29 30 30 30 30 30 30 30 30 30 30 29 29 29 29 30 30 30 29 30 30 31 31 32 33 33 34 34 35 36 37 38 39 41 41 42
32 31 31 30 30 29 29 29 29 30 30 30 31 31 31 31 31 31 31 31 31 31 31 31 32 32 32 33 33 33 34 35 35 36 37 38 38 39 40 41 42 44 45 45
33 33 32 32 31 31 31 31 31 31 31 31 31 31 32 32 33 33 33 33 33 33 33 34 34 34 35 35 36 36 36 37 37 38 39 39 40 42 43 44 45 46 47 47
34 34 33 33 33 33 32 32 32 32 32 31 31 32 32 32 32 32 33 34 34 35 35 36 36 37 37 37 38 38 38 39 39 40 41 42 43 44 45 46 47 48 48 49
35 35 34 34 34 34 34 33 33 32 32 31 31 32 32 32 32 32 32 33 35 36 36 37 37 38 38 39 39 40 41 41 42 43 44 45 46 46 47 48 49 50 51 52
35 35 35 35 35 34 34 34 33 33 32 32 32 32 32 33 33 34 34 34 35 35 36 37 38 38 39 40 40 41 42 43 44 45 46 46 47 48 49 50 51 52 53 54
35 35 35 36 36 36 35 35 35 34 33 33 33 33 34 34 35 35 35 36 36 37 38 38 39 40 41 42 42 43 44 45 46 47 48 48 49 50 51 52 53 54 54 55
36 36 36 36 36 36 36 36 36 35 35 35 35 35 35 36 36 36 37 38 38 38 39 40 40 41 42 43 44 45 46 47 48 49 50 51 52 53 53 54 55 55 56 56
35 35 35 36 36 36 36 36 36 36 36 36 36 36 37 37 38 38 39 39 40 41 41 42 42 43 44 45 46 46 47 48 49 50 51 52 53 54 54 55 55 56 56 56
Wind_Direction
226 230 234 236 232 230 225 221 219 217 218 221 226 228 228 231 232 230 230 230 228 228 228 227 226 228 230 228 228 231 234 234 238 240 240 244 249 254 259 264 269 272 277 282
233 236 239 240 236 235 230 221 217 219 222 227 230 229 228 232 234 234 232 231 229 229 230 231 231 231 231 231 231 232 235 239 243 246 247 248 252 256 260 264 268 273 276 278
235 239 241 244 240 235 228 221 222 224 229 232 233 232 232 234 235 235 234 232 230 230 231 231 233 233 234 235 234 235 238 240 245 249 250 251 254 258 260 263 268 271 274 276
233 235 238 237 237 233 228 223 221 223 227 231 233 233 235 237 236 233 232 230 231 232 231 233 234 234 236 238 239 241 243 245 248 252 254 255 257 258 262 265 268 271 273 274
235 238 240 237 235 233 233 231 227 226 228 231 232 232 234 239 238 233 231 229 231 235 236 236 236 236 235 238 240 243 245 247 250 253 255 256 258 261 265 267 269 271 272 273
235 238 237 234 232 232 235 232 227 228 233 235 234 236 239 239 238 235 235 235 236 237 237 238 239 239 238 240 244 245 247 250 253 255 258 259 260 264 268 269 270 271 272 273
235 238 237 233 232 231 229 227 227 231 235 235 235 237 240 241 240 239 239 239 239 240 242 242 242 242 241 244 247 249 250 253 256 260 261 262 263 267 270 272 273 274 275 275
234 237 236 235 231 230 231 232 231 234 236 236 237 240 242 245 245 245 245 242 241 243 246 247 246 246 248 250 251 253 255 257 259 263 264 265 266 267 270 273 274 276 277 276
235 237 237 236 234 234 235 236 235 236 239 239 240 243 244 245 247 247 246 247 247 249 248 248 249 250 253 255 254 256 257 258 260 262 264 266 267 268 271 273 274 276 277 278
233 235 236 237 236 235 237 239 239 239 241 242 245 249 249 248 251 251 249 248 249 251 251 251 252 253 255 256 257 259 259 259 259 261 263 265 266 269 271 273 274 275 277 278
234 235 236 238 239 239 239 241 242 242 242 242 246 251 254 255 255 255 253 252 252 252 254 255 256 257 258 258 258 259 259 260 260 261 264 266 267 269 272 273 274 275 276 278
235 236 237 237 238 239 240 242 243 243 242 242 245 251 255 256 256 256 256 256 256 257 258 259 260 261 263 262 260 261 262 263 263 264 266 267 269 271 273 274 274 276 277 278
234 234 236 237 237 237 239 241 244 246 245 246 249 251 254 255 256 257 258 258 258 258 260 261 263 264 266 266 265 265 265 266 267 268 268 269 271 273 274 275 276 277 278 278
234 235 236 238 238 237 237 239 243 246 247 249 251 253 254 254 255 256 257 257 258 259 260 263 264 266 268 269 269 268 267 267 269 270 271 271 273 274 276 277 278 279 280 280
234 235 236 236 237 238 238 241 243 246 249 251 253 255 256 256 257 258 258 259 260 261 263 264 265 266 268 270 270 270 270 269 270 271 272 273 275 277 278 278 279 280 280 281
234 236 237 237 238 239 240 243 245 248 251 254 256 258 259 259 260 261 262 261 262 263 264 266 268 269 271 271 271 271 272 272 272 272 273 275 276 277 278 279 280 281 282 282
235 236 238 239 239 241 243 246 248 250 254 256 256 258 261 261 261 261 263 264 265 266 267 268 270 271 273 273 273 274 275 276 276 275 276 277 277 279 279 280 280 281 282 283
236 236 237 239 241 244 245 248 250 251 255 256 256 259 261 261 260 262 265 266 267 267 267 268 270 272 274 274 275 276 277 278 278 278 279 279 279 280 281 281 282 283 283 284
236 237 238 241 243 245 247 248 249 251 253 255 257 259 260 260 260 262 264 266 267 268 269 269 271 272 273 274 276 277 277 278 279 279 279 280 281 282 282 282 283 284 285 286
235 237 240 242 244 245 247 248 250 252 253 255 257 259 261 261 261 263 265 266 268 269 270 272 273 274 274 275 277 277 278 279 280 279 280 281 282 282 282 282 283 285 286 286
236 237 239 241 243 245 247 249 251 253 253 255 257 260 262 262 262 263 265 267 268 270 271 273 274 275 276 277 277 278 278 279 280 281 281 282 283 284 284 284 285 286 286 287
236 237 239 241 243 246 249 251 252 253 255 256 258 261 263 265 265 264 265 267 269 270 272 273 275 276 277 278 278 279 279 280 280 281 282 283 284 284 285 285 286 287 287 288
236 238 240 241 242 245 249 251 252 253 256 258 260 262 264 266 268 269 269 270 272 273 274 275 276 277 278 279 280 280 281 282 282 283 283 284 285 285 286 286 287 288 289 289
238 239 240 242 243 246 249 250 252 254 257 259 261 263 265 268 270 271 272 274 274 275 276 276 277 278 279 279 280 281 282 283 283 284 285 285 286 286 287 288 289 289 290 290
240 241 242 243 245 248 250 251 253 256 258 260 261 263 266 268 270 272 274 275 276 278 278 279 280 280 280 281 281 282 282 283 284 285 286 287 287 288 288 289 289 290 290 290
240 241 243 244 247 249 251 252 254 257 260 261 262 264 267 269 271 273 275 276 278 280 280 281 281 282 282 283 283 284 284 285 286 286 287 287 288 288 289 289 289 290 290 290
241 243 245 246 247 249 251 253 254 257 259 261 263 265 268 271 272 274 276 278 279 280 281 282 282 283 284 284 284 285 286 286 287 287 288 288 288 289 290 290 291 291 291 291
Height
5831 5832 5833 5834 5835 5836 5838 5839 5841 5843 5844 5846 5847 5849 5850 5851 5853 5854 5856 5858 5860 5862 5863 5865 5867 5869 5871 5873 5875 5876 5878 5879 5881 5882 5883 5884 5884 5885 5885 5885 5885 5885 5884 5884
5829 5829 5830 5831 5832 5834 5835 5837 5838 5840 5842 5843 5844 5846 5847 5848 5850 5851 5853 5855 5857 5859 5860 5862 5864 5866 5868 5869 5871 5873 5875 5876 5877 5879 5880 5880 5881 5882 5882 5882 5882 5882 5882 5881
5826 5827 5828 5829 5830 5831 5833 5834 5836 5837 5840 5840 5842 5843 5845 5846 5847 5848 5850 5852 5853 5855 5857 5859 5861 5863 5864 5866 5868 5870 5871 5873 5874 5875 5876 5877 5878 5878 5879 5879 5879 5878 5878 5878
5823 5825 5826 5829 5828 5829 5830 5831 5833 5835 5836 5837 5839 5840 5842 5843 5844 5845 5847 5848 5850 5852 5854 5855 5857 5859 5861 5862 5864 5866 5867 5869 5870 5871 5872 5873 5874 5874 5874 5874 5874 5874 5874 5873
5820 5821 5823 5825 5825 5826 5827 5829 5830 5832 5833 5834 5836 5837 5839 5840 5841 5842 5844 5845 5847 5848 5850 5852 5853 5855 5857 5858 5860 5862 5864 5865 5866 5866 5867 5868 5869 5869 5870 5870 5870 5869 5869 5869
5817 5818 5820 5823 5823 5823 5826 5826 5828 5829 5830 5831 5833 5835 5837 5837 5838 5839 5841 5842 5843 5845 5846 5848 5849 5851 5853 5854 5856 5858 5859 5860 5861 5862 5863 5864 5864 5864 5865 5865 5865 5864 5864 5863
5813 5814 5816 5819 5819 5821 5824 5825 5825 5826 5827 5828 5830 5832 5833 5834 5835 5836 5837 5839 5840 5841 5843 5844 5846 5847 5849 5850 5852 5853 5854 5855 5856 5857 5858 5858 5859 5859 5859 5859 5859 5859 5858 5858
5808 5811 5815 5815 5816 5818 5819 5820 5821 5823 5824 5825 5827 5828 5829 5830 5831 5833 5834 5835 5836 5837 5839 5840 5841 5843 5845 5846 5847 5848 5849 5850 5851 5852 5852 5853 5853 5853 5853 5853 5853 5853 5852 5852
5805 5809 5810 5810 5812 5814 5815 5817 5818 5819 5821 5822 5823 5824 5826 5827 5828 5829 5830 5831 5832 5833 5834 5836 5837 5838 5839 5840 5841 5843 5844 5845 5845 5846 5846 5847 5847 5847 5847 5847 5846 5846 5846 5845
5799 5802 5804 5806 5808 5809 5811 5813 5814 5816 5817 5818 5819 5821 5822 5823 5824 5825 5826 5827 5828 5829 5830 5831 5832 5833 5834 5835 5836 5837 5838 5838 5839 5839 5840 5840 5840 5840 5840 5840 5840 5839 5839 5838
5793 5797 5799 5801 5803 5805 5807 5808 5810 5811 5813 5814 5815 5816 5817 5818 5819 5820 5821 5822 5823 5824 5825 5826 5827 5828 5829 5829 5830 5831 5831 5832 5832 5833 5833 5833 5834 5833 5833 5833 5832 5832 5831 5830
5788 5792 5794 5796 5798 5800 5802 5804 5805 5807 5808 5809 5810 5811 5812 5813 5814 5815 5816 5817 5818 5819 5820 5821 5822 5822 5823 5824 5824 5824 5825 5825 5825 5826 5826 5826 5826 5826 5825 5825 5824 5823 5822 5822
5782 5785 5787 5790 5792 5794 5796 5798 5800 5801 5803 5804 5805 5806 5807 5808 5809 5810 5811 5812 5813 5814 5815 5816 5816 5816 5817 5817 5817 5818 5818 5818 5818 5818 5818 5818 5818 5818 5817 5817 5815 5815 5813 5812
5774 5778 5780 5783 5786 5788 5790 5792 5794 5796 5797 5798 5800 5801 5802 5803 5804 5804 5805 5806 5807 5808 5809 5809 5810 5810 5811 5811 5811 5811 5811 5811 5811 5811 5810 5810 5810 5809 5808 5807 5806 5805 5804 5803
5767 5771 5774 5776 5779 5782 5784 5786 5788 5790 5791 5793 5794 5795 5796 5797 5798 5798 5799 5800 5801 5801 5802 5802 5803 5803 5803 5804 5803 5803 5803 5803 5803 5802 5802 5801 5801 5800 5799 5798 5797 5795 5794 5792
5760 5763 5766 5769 5772 5775 5777 5779 5781 5783 5785 5786 5787 5789 5789 5790 5791 5792 5793 5793 5794 5795 5795 5795 5795 5796 5796 5796 5795 5795 5795 5794 5794 5793 5793 5792 5791 5790 5789 5788 5786 5785 5783 5782
5752 5756 5759 5762 5765 5767 5770 5772 5774 5776 5778 5779 5780 5781 5782 5783 5784 5785 5785 5786 5786 5787 5787 5787 5787 5787 5787 5787 5787 5786 5786 5785 5785 5784 5783 5782 5781 5780 5778 5777 5775 5774 5772 5770
5744 5748 5751 5754 5757 5760 5762 5764 5766 5768 5770 5771 5773 5774 5774 5775 5776 5777 5777 5778 5778 5779 5779 5779 5779 5779 5779 5778 5778 5777 5777 5776 5775 5774 5773 5772 5770 5769 5768 5766 5764 5762 5760 5758
5736 5740 5743 5746 5748 5751 5754 5756 5758 5759 5761 5763 5764 5765 5766 5766 5767 5768 5768 5769 5769 5770 5770 5770 5770 5770 5769 5769 5769 5768 5767 5766 5765 5764 5762 5761 5760 5758 5756 5754 5752 5750 5748 5745
5728 5731 5734 5737 5740 5742 5745 5747 5749 5750 5752 5754 5755 5756 5757 5757 5758 5759 5759 5760 5760 5761 5761 5760 5760 5760 5759 5759 5758 5757 5757 5755 5754 5753 5751 5750 5748 5746 5744 5742 5739 5737 5734 5731
5719 5722 5726 5728 5731 5733 5736 5738 5740 5742 5743 5744 5745 5746 5747 5747 5748 5749 5749 5750 5750 5750 5750 5750 5750 5749 5749 5748 5747 5746 5745 5744 5742 5741 5739 5737 5735 5733 5731 5728 5725 5723 5720 5717
5709 5713 5716 5719 5722 5724 5726 5728 5730 5732 5733 5735 5736 5736 5737 5738 5738 5738 5738 5739 5739 5739 5739 5739 5738 5738 5737 5736 5735 5734 5733 5731 5730 5728 5726 5724 5721 5719 5717 5714 5711 5708 5704 5701
5699 5703 5706 5709 5712 5714 5717 5719 5721 5722 5724 5725 5726 5727 5727 5728 5728 5728 5728 5728 5728 5728 5727 5727 5726 5725 5725 5724 5723 5721 5720 5718 5716 5714 5712 5709 5707 5704 5701 5698 5695 5692 5688 5684
5690 5693 5696 5699 5702 5704 5706 5709 5710 5712 5713 5715 5716 5716 5717 5717 5717 5717 5717 5717 5717 5716 5716 5715 5714 5713 5712 5711 5709 5708 5706 5704 5702 5700 5697 5694 5692 5689 5685 5682 5679 5675 5671 5667
5680 5683 5686 5689 5691 5694 5696 5698 5700 5702 5703 5704 5705 5706 5706 5707 5707 5707 5706 5706 5705 5705 5704 5703 5702 5700 5699 5697 5695 5693 5691 5689 5687 5684 5682 5679 5676 5673 5669 5666 5662 5658 5654 5650
5670 5673 5676 5679 5681 5683 5686 5688 5690 5691 5693 5694 5694 5695 5695 5695 5695 5695 5694 5694 5693 5692 5691 5690 5688 5687 5685 5683 5681 5679 5677 5674 5672 5669 5666 5663 5659 5656 5652 5648 5644 5640 5636 5631
5659 5662 5665 5668 5670 5673 5675 5677 5679 5680 5682 5683 5683 5683 5684 5683 5683 5683 5682 5681 5680 5679 5678 5676 5675 5673 5671 5669 5666 5664 5662 5659 5656 5653 5649 5646 5642 5638 5635 5630 5626 5622 5617 5613